Location: Unspecified
(0.0000°N, 0.0000°E)
Time: 07:10:57
(UTC+00:00)

Envisat - Pass Details

Date: 12 August 2017
Orbit: 764 x 766 km, 98.2° (Epoch: 18 October)

Event Time Altitude Azimuth Distance (km) Brightness Sun altitude
Exits shadow 19:45:54 14° 29° (NNE) 2,019 5.0 -24.3°
Drops below altitude 10° 19:46:47 10° 22° (NNE) 2,292 5.4 -24.6°
Sets 19:49:24 0° 10° (N) 3,215 6.3 -25.2°
